[[{"header":{"parameterUnit":"m.s-1","parameterCategory":1,"la1":30.2991,"la2":30.254,"lo1":-89.0895,"lo2":-89.0444,"dy":0.0017,"dx":0.0017,"nx":28,"ny":28,"refTime":"2025-04-15T09:00:00:Z","depth":0,"parameterNumber":2,"parameterNumberName":"U-component_of_WINDS"},"data":[0,0,0,0,0,0,0,0,0,0,0,0,0,0,0,0,0,0,0,0,0,0,0,0,0,0,0,0,0,0,0,0,0,0,0,0,0,0,0,0,0,0,0,0,0,0,0,0,0,0,0,0,0,0,0,0,0,0,0.6566,0.6567,0,0.6642,0.6643,0.6643,0.6686,0.6686,0.6687,0.6687,0.6762,0.6763,0.6765,0,0,0,0,0,0,0,0,0,0,0,0,0,0.6456,0.6457,0.6566,0.6567,0.6568,0.6642,0.6643,0.6644,0.6686,0.6686,0.6687,0.6687,0.6761,0.6763,0.6765,0,0,0,0,0,0,0,0,0,0,0,0,0,0.6514,0.6458,0.6566,0.6598,0.6602,0.6641,0.6643,0.6644,0.6686,0.6686,0.6687,0.6687,0.676,0.6763,0.6766,0.6778,0,0,0.6774,0.6775,0,0,0,0,0,0,0,0,0.6511,0.6518,0.6592,0.6596,0.66,0.6655,0.6631,0.6689,0.6686,0.6654,0.6687,0.6687,0.6726,0.6731,0.6745,0.6782,0.6785,0.6774,0.6776,0.6777,0.6778,0,0,0,0,0,0,0,0.6507,0.6515,0.6596,0.6593,0.6598,0.6608,0.6616,0.6642,0.6688,0.6657,0.666,0.6669,0.6728,0.6742,0.6747,0.6786,0.6774,0.6777,0.6778,0.678,0.6836,0.6835,0,0,0,0,0,0,0.6498,0.6512,0.6594,0.6598,0.6555,0.661,0.6619,0.6637,0.6687,0.6695,0.6668,0.667,0.6737,0.6744,0.675,0.6767,0.6777,0.678,0.6781,0.6836,0.6836,0.6835,0,0,0,0,0,0,0.6496,0.6505,0.659,0.6556,0.6568,0.6611,0.6631,0.6638,0.6653,0.6696,0.6704,0.6675,0.6738,0.6746,0.6771,0.677,0.6781,0.6784,0.6836,0.6836,0.6835,0.6802,0,0,0,0,0,0,0.6492,0.6504,0.651,0.6556,0.6569,0.6611,0.6631,0.664,0.6658,0.6661,0.6704,0.6712,0.6739,0.6766,0.6773,0.6774,0.6786,0.6836,0.6836,0.6836,0.6803,0.68,0.6798,0,0,0,0,0,0.6488,0.6497,0.651,0.652,0.6578,0.6611,0.6618,0.665,0.6658,0.6663,0.6691,0.671,0.6769,0.6769,0.6777,0.6778,0.6836,0.6836,0.6836,0.6804,0.6801,0.6798,0,0,0,0,0,0,0.6449,0.6504,0.6519,0.6543,0.6572,0.6618,0.6626,0.6645,0.6672,0.6674,0.6711,0.6721,0.6742,0.6763,0.6761,0.6793,0.6805,0.6806,0.6778,0.6775,0.6773,0.6767,0.6788,0,0,0,0,0,0.6443,0.6467,0.6513,0.6529,0.6543,0.6582,0.6598,0.6619,0.6651,0.6663,0.6693,0.6722,0.6747,0.6762,0.6788,0.6807,0.6816,0.6812,0.6809,0.6807,0.6807,0.6818,0.6816,0.6834,0.6834,0.6834,0,0,0.6431,0.6464,0.6477,0.6522,0.6548,0.657,0.6592,0.6615,0.6632,0.6666,0.6692,0.6714,0.6749,0.677,0.6781,0.6789,0.6804,0.6806,0.6804,0.6806,0.6817,0.6815,0.6814,0.6834,0.6834,0.6834,0,0,0.6421,0.6449,0.6466,0.649,0.6528,0.6554,0.6558,0.6601,0.6618,0.6644,0.667,0.669,0.6732,0.6756,0.6773,0.6771,0.6789,0.6778,0.6765,0.6775,0.6773,0.6772,0.677,0.6769,0.6779,0.6779,0.6778,0,0.6402,0.6437,0.6471,0.6493,0.6512,0.6545,0.6561,0.6583,0.6627,0.6639,0.6647,0.67,0.6726,0.6753,0.6752,0.6766,0.677,0.6773,0.6771,0.677,0.677,0.6768,0.6768,0.6777,0.6777,0.6777,0.6777,0,0.6411,0.6435,0.6443,0.6486,0.6506,0.6524,0.656,0.6576,0.6596,0.662,0.6646,0.6678,0.671,0.6718,0.6737,0.6747,0.6751,0.6764,0.6777,0.6766,0.6765,0.6765,0.6774,0.6775,0.6776,0.6776,0,0,0.6378,0.6439,0.6441,0.6461,0.6505,0.6524,0.6543,0.6575,0.6588,0.6616,0.6633,0.6668,0.6681,0.67,0.6722,0.6731,0.6726,0.6743,0.6745,0.6738,0.6738,0.6727,0.6726,0.6739,0.6739,0.6739,0.6735,0,0.6373,0.6411,0.6443,0.6468,0.649,0.6522,0.6539,0.6567,0.659,0.6611,0.6637,0.6661,0.6676,0.6688,0.6698,0.6724,0.6726,0.6725,0.6753,0.6754,0.6743,0.6726,0.6715,0.6709,0.6735,0.6735,0.6735,0,0.6374,0.6402,0.643,0.6471,0.6482,0.6497,0.6528,0.6548,0.658,0.6597,0.6618,0.6641,0.6662,0.6673,0.6702,0.67,0.6713,0.6728,0.6729,0.6732,0.6743,0.6728,0.6709,0.6707,0.6735,0.6735,0.6735,0,0.6346,0.6391,0.6414,0.6429,0.6478,0.6487,0.6508,0.6541,0.6558,0.6585,0.6596,0.6625,0.664,0.6662,0.6691,0.6697,0.6716,0.673,0.6729,0.6729,0.6732,0.6731,0.6713,0.6741,0.6741,0.6741,0.6741,0,0.6337,0.6353,0.6402,0.6415,0.6433,0.6469,0.6485,0.6508,0.6537,0.6555,0.6584,0.66,0.6638,0.6659,0.6682,0.6701,0.6708,0.6721,0.6727,0.6718,0.6716,0.6727,0.6728,0.6741,0.6741,0.6741,0.6741,0,0.6309,0.6343,0.6369,0.6413,0.6425,0.6436,0.6473,0.6487,0.6512,0.6534,0.6541,0.658,0.6605,0.6637,0.6672,0.6688,0.6704,0.6714,0.6693,0.6697,0.6694,0.6693,0.6682,0.6682,0.671,0.671,0.671,0,0.6301,0.6314,0.636,0.6374,0.6394,0.6417,0.6435,0.647,0.6486,0.6524,0.6533,0.656,0.6584,0.6623,0.6653,0.668,0.669,0.6684,0.6694,0.6684,0.6689,0.6687,0.6688,0.6681,0.6681,0.668,0.668,0,0.6283,0.6299,0.6324,0.6354,0.6375,0.64,0.6426,0.6436,0.6476,0.6494,0.652,0.6539,0.6575,0.6601,0.6632,0.6652,0.6672,0.6677,0.6678,0.6668,0.6656,0.6661,0.6686,0.6676,0.6677,0.6677,0.6677,0.6677,0.6264,0.6277,0.6311,0.6337,0.6361,0.6385,0.64,0.6427,0.645,0.6483,0.6501,0.6527,0.6558,0.6601,0.662,0.664,0.6648,0.6649,0.665,0.6649,0.6646,0.6653,0.6646,0.6646,0.6646,0.6646,0.6646,0,0.6247,0.6271,0.6295,0.6331,0.6351,0.637,0.64,0.6415,0.6438,0.6465,0.6488,0.6518,0.6544,0.6576,0.6604,0.6613,0.6623,0.6619,0.6618,0.6622,0.6638,0.6634,0.6611,0.6611,0.6611,0.6611,0.6611,0.6611,0.624,0.6263,0.6282,0.6316,0.6339,0.6365,0.638,0.6402,0.6424,0.6456,0.6478,0.65,0.6529,0.6558,0.6582,0.6591,0.6599,0.6593,0.6604,0.6618,0.6621,0.6624,0.6621,0.6594,0.6594,0.6586,0.6586,0.6586]},{"header":{"parameterUnit":"m.s-1","parameterCategory":1,"la1":30.2991,"la2":30.254,"lo1":-89.0895,"lo2":-89.0444,"dy":0.0017,"dx":0.0017,"nx":28,"ny":28,"refTime":"2025-04-15T09:00:00:Z","depth":0,"parameterNumber":3,"parameterNumberName":"V-component_of_WINDS"},"data":[0,0,0,0,0,0,0,0,0,0,0,0,0,0,0,0,0,0,0,0,0,0,0,0,0,0,0,0,0,0,0,0,0,0,0,0,0,0,0,0,0,0,0,0,0,0,0,0,0,0,0,0,0,0,0,0,0,0,3.1652,3.1652,0,3.1629,3.1628,3.1628,3.1616,3.1616,3.1616,3.1616,3.1589,3.1588,3.1587,0,0,0,0,0,0,0,0,0,0,0,0,0,3.1683,3.1682,3.1652,3.1652,3.1651,3.1629,3.1628,3.1628,3.1616,3.1616,3.1616,3.1616,3.1589,3.1588,3.1587,0,0,0,0,0,0,0,0,0,0,0,0,0,3.1665,3.1682,3.1652,3.1643,3.1642,3.1629,3.1628,3.1628,3.1616,3.1616,3.1616,3.1616,3.1589,3.1588,3.1587,3.158,0,0,3.1584,3.1583,0,0,0,0,0,0,0,0,3.1666,3.1664,3.1644,3.1643,3.1642,3.1625,3.1629,3.1612,3.1616,3.1626,3.1616,3.1616,3.1601,3.1599,3.1594,3.1579,3.1578,3.1583,3.1583,3.1582,3.1582,0,0,0,0,0,0,0,3.1667,3.1665,3.1643,3.1644,3.1643,3.1639,3.1636,3.1626,3.1613,3.1625,3.1624,3.1622,3.16,3.1595,3.1593,3.1577,3.1584,3.1583,3.1582,3.1581,3.1555,3.1555,0,0,0,0,0,0,3.1671,3.1666,3.1643,3.1642,3.1655,3.1638,3.1635,3.1631,3.1613,3.1611,3.1622,3.1621,3.1597,3.1595,3.1592,3.1583,3.1582,3.1581,3.1581,3.1556,3.1555,3.1555,0,0,0,0,0,0,3.1671,3.1669,3.1644,3.1654,3.165,3.1638,3.1632,3.163,3.1626,3.1611,3.1608,3.1619,3.1597,3.1594,3.1584,3.1582,3.1581,3.158,3.1556,3.1556,3.1555,3.1566,0,0,0,0,0,0,3.1672,3.1669,3.1667,3.1654,3.165,3.1637,3.1632,3.163,3.1624,3.1623,3.1608,3.1606,3.1597,3.1585,3.1583,3.1581,3.1579,3.1556,3.1556,3.1555,3.1565,3.1566,3.1566,0,0,0,0,0,3.1673,3.167,3.1667,3.1665,3.1648,3.1637,3.1635,3.1626,3.1624,3.1622,3.1612,3.1606,3.1583,3.1584,3.1581,3.1579,3.1556,3.1556,3.1555,3.1565,3.1566,3.1566,0,0,0,0,0,0,3.1682,3.1668,3.1665,3.1657,3.1649,3.1635,3.1632,3.1627,3.1617,3.1617,3.1605,3.1601,3.1592,3.1584,3.1586,3.1572,3.1569,3.1568,3.1577,3.1578,3.1578,3.158,3.1578,0,0,0,0,0,3.1684,3.1677,3.1665,3.166,3.1656,3.1645,3.164,3.1633,3.1623,3.1619,3.1609,3.1599,3.1589,3.1583,3.1573,3.1564,3.156,3.1561,3.1562,3.1562,3.1562,3.1556,3.1556,3.1555,3.1555,3.1555,0,0,3.1686,3.1677,3.1674,3.1661,3.1654,3.1647,3.1641,3.1634,3.1628,3.1618,3.1608,3.16,3.1587,3.1578,3.1573,3.1571,3.1561,3.1562,3.1563,3.1562,3.1556,3.1556,3.1556,3.1555,3.1555,3.1555,0,0,3.1686,3.168,3.1674,3.1667,3.1657,3.1649,3.1648,3.1635,3.163,3.1621,3.1613,3.1605,3.1589,3.158,3.1574,3.1571,3.1565,3.1568,3.1571,3.1566,3.1566,3.1566,3.1565,3.1564,3.1568,3.1568,3.1568,0,3.169,3.168,3.1672,3.1665,3.166,3.1651,3.1645,3.1639,3.1625,3.162,3.1619,3.1599,3.1589,3.1578,3.1577,3.1572,3.157,3.157,3.1567,3.1566,3.1566,3.1565,3.1565,3.1568,3.1568,3.1568,3.1568,0,3.1685,3.1678,3.1675,3.1664,3.1658,3.1651,3.1641,3.1636,3.163,3.1623,3.1613,3.1602,3.159,3.1587,3.158,3.1574,3.1573,3.1569,3.1566,3.1567,3.1566,3.1565,3.1569,3.1569,3.1569,3.1568,0,0,3.169,3.1675,3.1674,3.1668,3.1656,3.165,3.1643,3.1633,3.1628,3.1619,3.1612,3.1599,3.1596,3.1588,3.1581,3.1576,3.1575,3.1573,3.1573,3.1574,3.1567,3.157,3.1569,3.1571,3.1571,3.1571,3.1568,0,3.1689,3.1678,3.167,3.1661,3.1654,3.1646,3.164,3.1631,3.1624,3.1617,3.1608,3.1599,3.1595,3.1591,3.1586,3.1576,3.1573,3.1576,3.1564,3.1563,3.1567,3.1569,3.1572,3.1569,3.1567,3.1567,3.1567,0,3.1686,3.1678,3.1669,3.1658,3.1655,3.1649,3.1639,3.1632,3.1622,3.1617,3.1609,3.1602,3.1593,3.1591,3.1579,3.1581,3.1575,3.1569,3.1569,3.1567,3.1565,3.1567,3.1568,3.1568,3.1566,3.1566,3.1566,0,3.169,3.1678,3.167,3.1666,3.1653,3.1649,3.1643,3.1633,3.1627,3.1618,3.1614,3.1603,3.1597,3.1589,3.1579,3.1578,3.1567,3.1564,3.1562,3.1562,3.1559,3.156,3.156,3.1556,3.1556,3.1556,3.1556,0,3.169,3.1684,3.1672,3.1668,3.1662,3.1653,3.1646,3.1639,3.163,3.1623,3.1615,3.1609,3.1596,3.1588,3.158,3.157,3.1568,3.1563,3.156,3.1563,3.1564,3.1559,3.1559,3.1556,3.1556,3.1556,3.1556,0,3.1693,3.1686,3.1677,3.1666,3.1663,3.1658,3.1648,3.1643,3.1635,3.1627,3.1624,3.1612,3.1602,3.1592,3.1577,3.1572,3.1563,3.156,3.1567,3.1566,3.1564,3.1564,3.1561,3.156,3.1557,3.1557,3.1557,0,3.1693,3.1689,3.1678,3.1673,3.1668,3.1661,3.1655,3.1646,3.164,3.1628,3.1624,3.1614,3.1605,3.1589,3.1579,3.1568,3.1564,3.1564,3.1562,3.1565,3.1564,3.1564,3.1564,3.1564,3.1564,3.1564,3.1564,0,3.1694,3.169,3.1683,3.1675,3.1669,3.1662,3.1654,3.165,3.1639,3.1633,3.1624,3.1617,3.1603,3.1593,3.1581,3.1573,3.1567,3.1565,3.1564,3.1567,3.1571,3.1568,3.1568,3.1565,3.1565,3.1565,3.1565,3.1565,3.1696,3.1692,3.1683,3.1675,3.1669,3.1662,3.1657,3.1649,3.1642,3.1631,3.1625,3.1616,3.1605,3.1588,3.1581,3.1572,3.157,3.1569,3.1568,3.1568,3.1569,3.1573,3.157,3.157,3.157,3.157,3.157,0,3.1696,3.169,3.1683,3.1673,3.1667,3.1663,3.1654,3.1649,3.1641,3.1632,3.1624,3.1613,3.1603,3.1592,3.158,3.1576,3.1572,3.1573,3.1573,3.1571,3.1571,3.1573,3.1576,3.1576,3.1576,3.1576,3.1576,3.1576,3.1695,3.1688,3.1684,3.1673,3.1667,3.1659,3.1654,3.1647,3.164,3.1628,3.162,3.1614,3.1604,3.1592,3.1582,3.1579,3.1575,3.1576,3.1572,3.1572,3.1571,3.1571,3.1573,3.1576,3.1576,3.1573,3.1573,3.1573]}]]